OK1KKY-14 Weather Reports


time (UTC)temp
F
wind
direction
speed
knots
gust
knots
rain 1hr
in
rain 24hr
in
rain mn
in
humidity
%
barometer
mb
20260502181233 74 0.0 0.0 0.00 0.00 0.00 31 1018.8
20260502180233 74 0.0 0.0 0.00 0.00 0.00 30 1018.8
20260502170232 73 0.0 0.0 0.00 0.00 0.00 29 1019.2
20260502164232 72 0.0 0.0 0.00 0.00 0.00 29 1019.3
20260502163232 72 0.0 0.0 0.00 0.00 0.00 29 1019.5
20260502162232 72 0.0 0.0 0.00 0.00 0.00 30 1019.6
20260502161232 72 0.0 0.0 0.00 0.00 0.00 30 1019.7
20260502160232 72 0.0 0.0 0.00 0.00 0.00 30 1019.8
20260502152232 72 0.0 0.0 0.00 0.00 0.00 29 1020.3
20260502151232 72 0.0 0.0 0.00 0.00 0.00 30 1020.5
20260502150232 72 0.0 0.0 0.00 0.00 0.00 29 1020.5
20260502130232 74 0.0 0.0 0.00 0.00 0.00 31 1022.1
20260502123232 74 0.0 0.0 0.00 0.00 0.00 31 1022.5
20260502122232 74 0.0 0.0 0.00 0.00 0.00 31 1022.6
20260502121232 73 0.0 0.0 0.00 0.00 0.00 32 1022.7
20260502120232 73 0.0 0.0 0.00 0.00 0.00 32 1022.9
20260502115232 73 0.0 0.0 0.00 0.00 0.00 32 1023.0
20260502114232 73 0.0 0.0 0.00 0.00 0.00 29 1023.1
20260502113232 73 0.0 0.0 0.00 0.00 0.00 30 1023.3
20260502112232 74 0.0 0.0 0.00 0.00 0.00 29 1023.5
20260502111243 73 0.0 0.0 0.00 0.00 0.00 33 1023.6
20260502110230 73 0.0 0.0 0.00 0.00 0.00 33 1023.8
20260502105230 73 0.0 0.0 0.00 0.00 0.00 29 1024.0
20260502104230 73 0.0 0.0 0.00 0.00 0.00 34 1024.1
20260502103230 73 0.0 0.0 0.00 0.00 0.00 33 1024.1
20260502102230 73 0.0 0.0 0.00 0.00 0.00 34 1024.3
20260502101230 72 0.0 0.0 0.00 0.00 0.00 36 1024.4
20260502100230 72 0.0 0.0 0.00 0.00 0.00 38 1024.5
20260502091230 73 0.0 0.0 0.00 0.00 0.00 38 1025.0
20260502090230 73 0.0 0.0 0.00 0.00 0.00 38 1025.0
20260502071230 74 0.0 0.0 0.00 0.00 0.00 36 1025.9
20260502070230 74 0.0 0.0 0.00 0.00 0.00 35 1025.9
20260502065230 74 0.0 0.0 0.00 0.00 0.00 35 1025.9
20260502064230 74 0.0 0.0 0.00 0.00 0.00 35 1025.9
20260502063230 74 0.0 0.0 0.00 0.00 0.00 35 1026.0
20260502062230 74 0.0 0.0 0.00 0.00 0.00 35 1026.1
20260502061230 74 0.0 0.0 0.00 0.00 0.00 35 1026.0
20260502060230 74 0.0 0.0 0.00 0.00 0.00 35 1025.9
20260502055230 74 0.0 0.0 0.00 0.00 0.00 34 1025.9
20260502054230 73 0.0 0.0 0.00 0.00 0.00 34 1025.9
20260502053230 73 0.0 0.0 0.00 0.00 0.00 34 1025.9
20260502052230 73 0.0 0.0 0.00 0.00 0.00 34 1025.9
20260502051235 71 0.0 0.0 0.00 0.00 0.00 35 1025.9
20260502050229 71 0.0 0.0 0.00 0.00 0.00 35 1025.9
20260502045229 71 0.0 0.0 0.00 0.00 0.00 35 1025.8
20260502044229 71 0.0 0.0 0.00 0.00 0.00 35 1025.8
20260502043229 70 0.0 0.0 0.00 0.00 0.00 36 1025.8
20260502042229 70 0.0 0.0 0.00 0.00 0.00 36 1025.8
20260502041229 70 0.0 0.0 0.00 0.00 0.00 36 1025.8
20260502040229 70 0.0 0.0 0.00 0.00 0.00 35 1025.8
20260502035229 70 0.0 0.0 0.00 0.00 0.00 35 1025.7
20260502034229 70 0.0 0.0 0.00 0.00 0.00 35 1025.8
20260502033229 70 0.0 0.0 0.00 0.00 0.00 35 1025.7
20260502032229 70 0.0 0.0 0.00 0.00 0.00 35 1025.7
20260502031229 70 0.0 0.0 0.00 0.00 0.00 35 1025.8
20260502030229 70 0.0 0.0 0.00 0.00 0.00 35 1025.8
20260502025229 70 0.0 0.0 0.00 0.00 0.00 35 1025.9
20260502024229 70 0.0 0.0 0.00 0.00 0.00 35 1025.9
20260502023229 70 0.0 0.0 0.00 0.00 0.00 35 1025.9
20260502022229 70 0.0 0.0 0.00 0.00 0.00 35 1025.9
20260502021229 70 0.0 0.0 0.00 0.00 0.00 35 1025.9
20260502020229 70 0.0 0.0 0.00 0.00 0.00 36 1025.9
20260502015229 70 0.0 0.0 0.00 0.00 0.00 36 1025.9
20260502014229 71 0.0 0.0 0.00 0.00 0.00 36 1026.0
20260502013229 70 0.0 0.0 0.00 0.00 0.00 36 1025.9
20260502012229 71 0.0 0.0 0.00 0.00 0.00 36 1026.0
20260502011229 71 0.0 0.0 0.00 0.00 0.00 36 1026.0
20260502010229 71 0.0 0.0 0.00 0.00 0.00 36 1026.1
20260502005229 71 0.0 0.0 0.00 0.00 0.00 36 1026.0
20260502004229 71 0.0 0.0 0.00 0.00 0.00 36 1026.0
20260502003229 71 0.0 0.0 0.00 0.00 0.00 36 1026.1
20260502002229 71 0.0 0.0 0.00 0.00 0.00 36 1026.1
20260502001229 71 0.0 0.0 0.00 0.00 0.00 36 1026.1
20260502000229 71 0.0 0.0 0.00 0.00 0.00 36 1026.1
20260501235229 71 0.0 0.0 0.00 0.00 0.00 36 1026.2
20260501234229 71 0.0 0.0 0.00 0.00 0.00 36 1026.2
20260501233229 72 0.0 0.0 0.00 0.00 0.00 35 1026.3
20260501232229 72 0.0 0.0 0.00 0.00 0.00 35 1026.2
20260501231232 72 0.0 0.0 0.00 0.00 0.00 35 1026.2
20260501230227 72 0.0 0.0 0.00 0.00 0.00 36 1026.2
20260501225228 72 0.0 0.0 0.00 0.00 0.00 35 1026.4
20260501224227 72 0.0 0.0 0.00 0.00 0.00 35 1026.4
20260501223227 72 0.0 0.0 0.00 0.00 0.00 36 1026.4
20260501222227 72 0.0 0.0 0.00 0.00 0.00 36 1026.3
20260501221227 72 0.0 0.0 0.00 0.00 0.00 36 1026.4
20260501220227 72 0.0 0.0 0.00 0.00 0.00 36 1026.4
20260501215227 72 0.0 0.0 0.00 0.00 0.00 36 1026.3
20260501214227 73 0.0 0.0 0.00 0.00 0.00 36 1026.3
20260501213227 72 0.0 0.0 0.00 0.00 0.00 36 1026.2
20260501212227 72 0.0 0.0 0.00 0.00 0.00 36 1026.2
20260501211227 72 0.0 0.0 0.00 0.00 0.00 36 1026.2
20260501210228 73 0.0 0.0 0.00 0.00 0.00 35 1026.2
20260501205227 73 0.0 0.0 0.00 0.00 0.00 35 1026.2
20260501204227 73 0.0 0.0 0.00 0.00 0.00 36 1026.0
20260501203227 73 0.0 0.0 0.00 0.00 0.00 36 1026.1
20260501202227 73 0.0 0.0 0.00 0.00 0.00 35 1026.1
20260501201227 73 0.0 0.0 0.00 0.00 0.00 35 1026.1
20260501200227 73 0.0 0.0 0.00 0.00 0.00 35 1026.0
20260501195227 73 0.0 0.0 0.00 0.00 0.00 35 1026.1
20260501194227 73 0.0 0.0 0.00 0.00 0.00 35 1025.9
20260501193228 73 0.0 0.0 0.00 0.00 0.00 35 1025.9
20260501192228 73 0.0 0.0 0.00 0.00 0.00 35 1025.9
20260501191227 73 0.0 0.0 0.00 0.00 0.00 35 1025.9
20260501190227 73 0.0 0.0 0.00 0.00 0.00 35 1025.8
20260501185227 73 0.0 0.0 0.00 0.00 0.00 35 1025.7
20260501184228 73 0.0 0.0 0.00 0.00 0.00 35 1025.8
20260501183227 73 0.0 0.0 0.00 0.00 0.00 35 1025.6
20260501182227 73 0.0 0.0 0.00 0.00 0.00 35 1025.5